Location: ???????????
(54.5822°N, 39.1075°E)
Time: 13:47:35
(UTC+00:00)

Cosmos 773 Rocket - Pass Details

Date: 19 May 2025
Orbit: 742 x 772 km, 74.1° (Epoch: 19 June)

Event Time Altitude Azimuth Distance (km) Brightness Sun altitude
Exits shadow 20:11:33 - 218° (SW) 2,805 6.6 -14.0°
Reaches altitude 10° 20:12:57 10° 221° (SW) 2,261 6.1 -14.1°
Maximum altitude 20:18:01 61° 301° (WNW) 847 4.4 -14.3°
Drops below altitude 10° 20:23:06 10° 23° (NNE) 2,268 7.3 -14.5°
Sets 20:25:30 0° 27° (NNE) 3,195 8.0 -14.5°
